Weather in zheleznodorozhnaya stantsiya Tuleblya

Russia / Novgorod Oblast     57°57′25″N   31°03′37″E
temp.,
°C
wind,
m/s
gust,
m/s
humid.,
%
clouds,
%
prec.,
mm/h
press.,
hPa
HPBL,
m
6 august, fri
fri600:00+13nne3798100 0.9 1013538
03:00+13ne2698100 1.1 1013407
06:00+13ne489898 0.4 1012517
09:00+14ne479588 0.5 1012548
12:00+16ne4679100 0.2 1012925
15:00+19ne4660100 0.3 10101346
18:00+19ne4767100 0.0 1009883
21:00+16ne41080100 0.0 1009447
7 august, sat
sat700:00+15ene4991100 0.0 1008335
03:00+16ene41093100 0.0 1006553
06:00+16ene41096100 0.1 1005534
09:00+17ese3997100 0.3 1005524
12:00+18ese4995100 0.3 1005563
15:00+19se269433 0.4 1005364
18:00+21sse268731 1.7 1005415
21:00+16ssw399391 2.1 1006316
8 august, sun
sun800:00+14s2894100 0.0 1008223
03:00+14s269592 0.0 1009200
06:00+14s2696100 0.0 1009245
09:00+15s2593100 0.0 1011288
12:00+18sw358598 0.7 1012704
15:00+23w345581 1.1 10121613
18:00+22sw1365100 0.1 1013165
21:00+19ssw2377100 0.1 101457
9 august, mon
mon900:00+16s248972 0.0 101591
03:00+15sse2697100 0.0 1015114
06:00+15se3109133 0.0 1014219
09:00+20s4768100 0.1 1014458
12:00+24ssw5763100 0.1 10151371
15:00+23wsw576375 0.2 10161315
18:00+22sw3668100 0.0 1016878
21:00+17ssw23865 0.0 101750
10 august, tue
tue1000:00+16sw27885 0.0 1018121
03:00+15wsw23890 0.0 101860
06:00+14wsw23930 0.0 101860
09:00+19wsw236934 0.0 1019415
12:00+23sw245237 0.0 10191238
15:00+24wsw234697 0.0 10181667
18:00+24wnw1252100 0.0 10171471
21:00+18nne1175100 0.0 101711